EW4092 Weather Reports


time (UTC)temp
C
wind
direction
speed
KPH
gust
KPH
rain 1hr
cm
rain 24hr
cm
rain mn
cm
humidity
%
barometer
mb
20260507141542 13 222 3.2 17.7 0.00 0.00 0.00 52 1015.3
20260507134541 12 202 1.6 12.9 0.00 0.00 0.00 55 1015.3
20260507133041 12 203 4.8 11.3 0.00 0.00 0.00 56 1015.3
20260507131540 12 121 4.8 19.3 0.00 0.00 0.00 57 1015.1
20260507130049 11 131 1.6 12.9 0.00 0.00 0.00 58 1015.2
20260507124543 12 104 1.6 8.0 0.00 0.00 0.00 56 1015.2
20260507123043 12 131 4.8 14.5 0.00 0.00 0.00 57 1015.0
20260507121540 11 102 0.0 9.7 0.00 0.00 0.00 60 1015.0
20260507120029 12 79 1.6 9.7 0.00 0.00 0.00 59 1015.1
20260507114527 12 118 0.0 6.4 0.00 0.00 0.00 57 1015.0
20260507113033 12 108 1.6 14.5 0.00 0.00 0.00 57 1015.0
20260507111525 13 135 3.2 11.3 0.00 0.00 0.00 57 1015.1
20260507110027 13 117 3.2 9.7 0.00 0.00 0.00 57 1015.0
20260507104519 13 105 3.2 11.3 0.00 0.00 0.00 56 1014.9
20260507103018 13 159 1.6 11.3 0.00 0.00 0.00 56 1014.8
20260507101521 13 163 3.2 11.3 0.00 0.00 0.00 57 1014.8
20260507100021 13 270 3.2 9.7 0.00 0.00 0.00 57 1015.0
20260507094512 14 122 1.6 11.3 0.00 0.00 0.00 55 1014.8
20260507093022 14 115 6.4 14.5 0.00 0.00 0.00 56 1014.7
20260507091509 14 117 1.6 12.9 0.00 0.00 0.00 57 1014.7
20260507090006 14 100 4.8 16.1 0.00 0.00 0.00 56 1014.5
20260507084502 15 165 1.6 14.5 0.00 0.00 0.00 55 1014.4
20260507083104 15 135 3.2 17.7 0.00 0.00 0.00 56 1014.2
20260507081558 15 156 3.2 9.7 0.00 0.00 0.00 56 1014.0
20260507080131 15 212 3.2 17.7 0.00 0.00 0.00 56 1014.0
20260507074601 15 177 4.8 11.3 0.00 0.00 0.00 54 1014.0
20260507073059 16 163 8.0 17.7 0.00 0.00 0.00 52 1013.8
20260507071600 16 160 3.2 14.5 0.00 0.00 0.00 52 1013.9
20260507070045 15 135 4.8 11.3 0.00 0.00 0.00 54 1014.0
20260507064550 15 169 6.4 12.9 0.00 0.00 0.00 54 1014.2
20260507063043 16 86 4.8 16.1 0.00 0.00 0.00 53 1014.2
20260507061543 16 233 4.8 14.5 0.00 0.00 0.00 54 1014.2
20260507060042 16 188 1.6 6.4 0.00 0.00 0.00 54 1014.4
20260507054549 16 177 0.0 9.7 0.00 0.00 0.00 51 1014.4
20260507053046 17 93 3.2 12.9 0.00 0.00 0.00 48 1014.3
20260507051540 17 91 3.2 11.3 0.00 0.00 0.00 46 1014.1
20260507050039 18 109 4.8 14.5 0.00 0.00 0.00 44 1014.3
20260507044539 19 139 1.6 12.9 0.00 0.00 0.00 41 1014.2
20260507043040 20 259 0.0 14.5 0.00 0.00 0.00 38 1014.1
20260507041536 20 159 0.0 8.0 0.00 0.00 0.00 38 1014.1
20260507040035 21 111 4.8 16.1 0.00 0.00 0.00 34 1013.9
20260507034534 21 108 8.0 12.9 0.00 0.00 0.00 33 1013.5
20260507033037 21 72 6.4 14.5 0.00 0.00 0.00 33 1013.5
20260507031534 21 98 6.4 20.9 0.00 0.00 0.00 32 1013.3
20260507030033 22 103 8.0 17.7 0.00 0.00 0.00 31 1013.2
20260507024534 23 94 11.3 19.3 0.00 0.00 0.00 30 1013.2
20260507023031 23 135 9.7 25.7 0.00 0.00 0.00 29 1013.0
20260507021531 23 124 19.3 32.2 0.00 0.00 0.00 28 1012.9
20260507020033 23 103 14.5 35.4 0.00 0.00 0.00 28 1012.9
20260507014529 23 103 16.1 32.2 0.00 0.00 0.00 28 1012.8
20260507013035 23 120 9.7 24.1 0.00 0.00 0.00 28 1012.7
20260507011536 23 119 11.3 27.4 0.00 0.00 0.00 29 1012.7
20260507010028 23 82 14.5 24.1 0.00 0.00 0.00 29 1012.7
20260507004525 23 110 9.7 16.1 0.00 0.00 0.00 30 1012.7
20260507003025 23 94 11.3 22.5 0.00 0.00 0.00 31 1012.6
20260507001526 24 86 14.5 24.1 0.00 0.00 0.00 30 1012.5
20260507000024 25 103 11.3 22.5 0.00 0.00 0.00 30 1012.3
20260506234530 25 89 8.0 16.1 0.00 0.00 0.00 30 1012.1
20260506233023 25 93 12.9 27.4 0.00 0.00 0.00 29 1012.0
20260506231524 26 82 11.3 19.3 0.00 0.00 0.00 28 1012.0
20260506230022 26 77 9.7 25.7 0.00 0.00 0.00 26 1012.0
20260506224527 27 77 6.4 20.9 0.00 0.00 0.00 26 1012.1
20260506223021 27 125 11.3 27.4 0.00 0.00 0.00 26 1012.2
20260506221520 27 105 12.9 22.5 0.00 0.00 0.00 26 1012.2
20260506220020 28 77 12.9 32.2 0.00 0.00 0.00 26 1012.0
20260506214519 28 121 9.7 19.3 0.00 0.00 0.00 25 1012.0
20260506213021 30 119 11.3 20.9 0.00 0.00 0.00 23 1011.9
20260506211518 30 134 8.0 16.1 0.00 0.00 0.00 23 1011.8
20260506210020 30 84 6.4 16.1 0.00 0.00 0.00 24 1011.9
20260506204516 30 203 3.2 17.7 0.00 0.00 0.00 23 1011.8
20260506203015 30 94 6.4 14.5 0.00 0.00 0.00 24 1012.0
20260506201518 30 115 4.8 12.9 0.00 0.00 0.00 26 1012.0
20260506200012 29 115 3.2 11.3 0.00 0.00 0.00 28 1012.1
20260506194508 28 112 1.6 6.4 0.00 0.00 0.00 28 1012.1
20260506193009 28 71 4.8 9.7 0.00 0.00 0.00 28 1012.4
20260506191506 28 79 1.6 8.0 0.00 0.00 0.00 29 1012.5
20260506190004 28 129 0.0 8.0 0.00 0.00 0.00 30 1012.4
20260506184502 27 108 0.0 8.0 0.00 0.00 0.00 28 1012.5
20260506183111 27 155 1.6 8.0 0.00 0.00 0.00 29 1012.6
20260506181601 27 120 4.8 14.5 0.00 0.00 0.00 31 1012.8
20260506180057 27 126 3.2 6.4 0.00 0.00 0.00 33 1012.8
20260506174606 26 73 0.0 4.8 0.00 0.00 0.00 35 1012.9
20260506173055 26 235 0.0 4.8 0.00 0.00 0.00 35 1013.0
20260506171547 26 331 3.2 8.0 0.00 0.00 0.00 38 1013.0
20260506170046 25 114 1.6 6.4 0.00 0.00 0.00 36 1013.1
20260506164547 24 149 0.0 11.3 0.00 0.00 0.00 37 1013.1
20260506163055 23 76 0.0 6.4 0.00 0.00 0.00 39 1013.2
20260506161537 23 98 1.6 4.8 0.00 0.00 0.00 41 1013.4
20260506160035 23 350 3.2 11.3 0.00 0.00 0.00 42 1013.6
20260506154536 22 94 0.0 9.7 0.00 0.00 0.00 43 1013.5
20260506153031 22 92 4.8 11.3 0.00 0.00 0.00 42 1013.7
20260506151528 21 152 1.6 11.3 0.00 0.00 0.00 45 1013.7
20260506150019 19 63 0.0 1.6 0.00 0.00 0.00 49 1013.8
20260506144516 17 64 0.0 3.2 0.00 0.00 0.00 54 1013.9
20260506143015 17 66 0.0 3.2 0.00 0.00 0.00 54 1013.8